Location: Dead Woman Crossing
(43.5369°N, 106.3228°W)
Time: 23:41:28
(UTC+00:00)

UWE-3 - Visible Passes

Search period start: 28 June 2022 00:00
Search period end: 08 July 2022 00:00
Orbit: 581 x 680 km, 97.7° (Epoch: 28 June)

Date Brightness Start Highest point End Pass type
(mag) Time Alt. Az. Time Alt. Az. Time Alt. Az.
28 Jun ? 09:21:07 10° ENE 09:23:25 14° E 09:25:44 10° ESE visible
29 Jun ? 09:40:40 10° NE 09:44:07 23° E 09:47:37 10° SSE visible
30 Jun ? 10:00:43 10° NNE 10:04:45 37° E 10:08:52 10° SSE visible
01 Jul ? 10:21:01 10° NNE 10:25:19 62° E 10:29:44 10° S visible
02 Jul ? 09:08:48 10° E 09:09:01 10° E 09:09:14 10° E visible
02 Jul ? 10:41:29 10° N 10:45:51 79° WNW 10:50:18 10° SSW visible
03 Jul ? 09:26:52 10° NE 09:29:46 17° E 09:32:40 10° SE visible
04 Jul ? 09:46:39 10° NE 09:50:25 27° E 09:54:15 10° SSE visible
05 Jul ? 10:06:48 10° NNE 10:11:02 44° E 10:15:21 10° S visible
06 Jul ? 10:27:10 10° NNE 10:31:35 75° ESE 10:36:06 10° S visible
07 Jul ? 09:13:27 10° ENE 09:15:20 12° E 09:17:15 10° ESE visible
07 Jul ? 10:47:40 10° N 10:52:04 67° WNW 10:56:34 10° SSW visible
